Location: Wiler
(46.4041°N, 7.7840°E)
Time: 07:32:29
(UTC+00:00)

Cosmos 2360 Rocket - Pass Details

Date: 09 April 2020
Orbit: 834 x 845 km, 71.0° (Epoch: 24 May)

Event Time Altitude Azimuth Distance (km) Brightness Sun altitude
Rises 21:29:54 0° 341° (NNW) 3,394 6.4 -29.3°
Reaches altitude 10° 21:33:22 10° 2° (N) 2,458 5.2 -29.7°
Maximum altitude 21:36:47 16° 40° (NE) 2,055 4.3 -30.0°
Enters shadow 21:37:51 15° 53° (NE) 2,097 4.3 -30.1°
